Regional Weather Roundup
Issued by NWS Wakefield, VA

Home | Current Version | Previous Version | Graphics & Text | Print | Product List | Glossary On
Versions: 1 2 3 4 5 6 7 8 9 10 11 12 13 14 15 16 17 18 19 20 21 22 23 24 25 26 27 28 29 30 31 32 33 34 35 36 37 38 39 40 41 42 43 44 45 46 47 48 49 50
000
ASUS41 KAKQ 220515
RWRAKQ

REGIONAL WEATHER ROUNDUP
NATIONAL WEATHER SERVICE WAKEFIELD VA
1200 AM EST WED FEB 22 2017

Note: "fair" indicates few or no clouds below 12,000 feet with no
significant weather and/or obstructions to visibility. * = Denotes
station may not report precipitation (e.g., rain,snow,etc.),
thunder or fog.

VAZ042-051-052>054-056-220600-
NORTHERN VIRGINIA

CITY           SKY/WX    TMP DP  RH WIND       PRES   REMARKS
WASH NATIONAL  CLOUDY    48  39  71 S8        30.12F
DULLES         CLOUDY    47  36  65 S6        30.10F
FORT BELVOIR   CLOUDY    47  37  70 SE3       30.12F
QUANTICO       CLOUDY    46  42  86 S3        30.13F
FREDERICKSBRG* CLOUDY    47  39  73 S3        30.12S
STAFFORD*      CLOUDY    43  38  81 SE3       30.15F
WARRENTON      CLOUDY    48  34  58 S3        30.09F
CULPEPER*      CLOUDY    45  38  76 CALM      30.11F
MANASSAS*      CLOUDY    47  37  68 S5        30.10F
LEESBURG*      CLOUDY    48  41  76 MISG      30.10F
WINCHESTER     CLOUDY    48  34  57 CALM      30.05F
FRONT ROYAL*   CLOUDY    50  36  57 S3        30.05F
LURAY*         CLOUDY    52  41  66 CALM      30.06F
$$

VAZ048-049-060>072-079>083-220600-
CENTRAL AND SOUTH CENTRAL VIRGINIA

CITY           SKY/WX    TMP DP  RH WIND       PRES   REMARKS
RICHMOND       MOCLDY    43  39  86 SE3       30.11F
CHESTERFIELD*  FAIR      43  25  49 S6        30.13F
PETERSBURG*    PTCLDY    43  38  82 CALM      30.13S
HANOVER        CLOUDY    45  37  73 CALM      30.13F
TAPPAHANNOCK*  CLOUDY    44  32  61 CALM      30.13F
QUINTON*       FAIR      42  40  91 E6        30.12F
CHARLOTTSVILLE CLOUDY    52  39  61 SW5       30.08F
GORDONSVILLE*  MOCLDY    46  38  74 CALM      30.10S
ORANGE*        PTCLDY    46  36  66 CALM      30.11F
LOUISA*        CLOUDY    50  41  71 CALM      30.09F
BUMPASS*       FAIR      44  38  79 SW6       30.11F
FARMVILLE*     CLOUDY    47  39  74 CALM      30.10R
CREWE*         FAIR      40  40 100 CALM      30.10F
FORT PICKETT*  FAIR      44  38  81 SE3       30.11F
CHASE CITY*    FAIR      46  40  81 SE3       30.10F
CLARKSVILLE*   FAIR      46  43  87 CALM      30.10F
SOUTH HILL*    CLOUDY    43  42  95 CALM      30.17S
LAWRENCEVILLE* FAIR      45  42  86 CALM      30.12S
EMPORIA*       MOCLDY    41  37  87 CALM      30.14S
$$

VAZ088>098-220600-
SOUTHEAST VIRGINIA

CITY           SKY/WX    TMP DP  RH WIND       PRES   REMARKS
NORFOLK        CLOUDY    47  42  83 S3        30.12F
VIRGINIA BEACH CLOUDY    44  39  82 CALM      30.12F
NORFOLK NAVAL  CLOUDY    48  42  80 SE6       30.13F
WEST POINT*    CLOUDY    44  40  87 SE3       30.14F
SALUDA*        FAIR      43  41  92 SE5       30.12F
NEWPORT NEWS   PTCLDY    42  40  92 CALM      30.12F
LANGLEY AFB    CLOUDY    47  43  87 CALM      30.12F
FORT EUSTIS    CLOUDY    46  41  81 SE5       30.10F
WILLIAMSBURG*  PTCLDY    48  45  87 CALM      30.13F
HR EXEC AP*    FAIR      41  37  87 CALM      30.11F
FRANKLIN*      CLOUDY    44  40  86 CALM      30.12F
US460-WAKEFLD  MOCLDY    45  41  86 CALM      30.12F
$$

VAZ020-022-025-037-045-220600-
WEST CENTRAL AND SOUTHWEST VIRGINIA

CITY           SKY/WX    TMP DP  RH WIND       PRES   REMARKS
STAUNTON*      CLOUDY    49  37  63 SW3       30.09F
WAYNESBORO*    CLOUDY    48  36  63 CALM      30.09F
HOT SPRINGS VA LGT RAIN  43  36  75 CALM      30.08F
LYNCHBURG      CLOUDY    46  38  73 CALM      30.11F
DANVILLE       PTCLDY    45  40  82 CALM      30.10S
SOUTH BOSTON*  FAIR      44  38  79 CALM      30.11S
MARTINSVILLE   CLOUDY    42  37  83 CALM      30.11F
ROANOKE        CLOUDY    52  38  58 CALM      30.11F
BLACKSBURG     MOCLDY    47  39  74 CALM      30.12F
DUBLIN*        MOCLDY    48  41  76 CALM      30.10F
MARION*        MOCLDY    52  42  67 NE8       30.10S
HILLSVILLE*    MOCLDY    48  39  69 CALM      30.08S
RICHLANDS*     CLOUDY    54  43  66 SE7       30.04F
WISE*          CLOUDY    55  41  58 CALM      30.04F
ABINGDON*      CLOUDY    56  46  67 E7        30.04F
$$

MDZ021>025-VAZ099-100-220600-
SOUTHERN MARYLAND AND THE DELMARVA PENINSULA

CITY           SKY/WX    TMP DP  RH WIND       PRES   REMARKS
PATUXENT RIVER PTCLDY    44  40  85 CALM      30.13F
BAY BRIDGE APT CLOUDY    45  37  76 SE6       30.12F
LEONARDTOWN    PTCLDY    43  36  75 CALM      30.14S
DOVER          CLOUDY    40  40 100 SE5       30.13F
GEORGETOWN     NOT AVBL
EASTON         MOCLDY    44  36  73 S6        30.16F
CAMBRIDGE      NOT AVBL
SALISBURY      CLOUDY    39  37  92 CALM      30.13F
OCEAN CITY     CLOUDY    43  38  82 CALM      30.15F
WALLOPS ISLAND PTCLDY    43  41  93 SE3       30.14F
ACCOMACK*      CLOUDY    45  41  87 SE6       30.12F
$$

NCZ012>017-030>032-220600-
NORTH CENTRAL AND EASTERN NORTH CAROLINA

CITY           SKY/WX    TMP DP  RH WIND       PRES   REMARKS
ROANOKE RAPIDS FAIR      46  43  87 CALM      30.12F
RALEIGH        MOCLDY    55  45  68 SE9       30.09F
ELIZABETH CITY PTCLDY    47  45  93 E3        30.14F
AHOSKIE*         N/A     46  42  86 CALM      30.13F
EDENTON*       PTCLDY    47  44  91 CALM      30.14F
CURRITUCK*     PTCLDY    48  48 100 CALM      30.14F
KILL DEVIL HLS NOT AVBL
MANTEO         PTCLDY    50  50  99 E6        30.14F
CAPE HATTERAS  MOCLDY    61  50  67 SE6       30.13F
TARBORO*       NOT AVBL
GOLDSBORO      PTCLDY    51  51 100 E3        30.08F
WASHINGTON     NOT AVBL
GREENVILLE     PTCLDY    50  46  87 CALM      30.13F
NEW BERN       CLOUDY    49  49 100 CALM      30.13F
WILMINGTON     CLOUDY    51  50  96 NE5       30.09F
$$

VAZ048-220600-
ELSEWHERE

CITY           SKY/WX    TMP DP  RH WIND       PRES   REMARKS
HARRISBURG PA  CLOUDY    44  34  67 E5        30.09F
BALTIMORE      CLOUDY    45  39  79 SE3       30.11F
ANNAPOLIS      CLOUDY    46  39  76 S8        30.12F
ANDREWS AFB    CLOUDY    44  37  77 S8        30.10F
PHILADELPHIA   CLOUDY    42  34  73 CALM      30.14F
HENDERSON NC   PTCLDY    48  42  78 SE5       30.10F
GREENSBORO     CLOUDY    57  38  48 SE7       30.07F
ROCKY MOUNT    PTCLDY    48  46  93 CALM      30.11F
$$

VAZ100-220600-
MARINE

STATION/POSITION TIME  TEMP    WIND        PRES    WAVE   SWELL
                       AIR SEA DIR/SP/G            HT/PER HT/PER
                 (UTC) (F)     (DEG/KT/KT) (MB)    (FT/S) (FT/S)
CAPE MAY NJ      0448   43 42  130/  4/  5 1020.5F
LEWES DE         0448   43 42     CALM     1020.9F
OCEAN-CITY-INLET 0448   44 44  160/  2/  3 1021.1F
WACHAPREAGUE VA  0448   45 51  170/  1/  2 1020.3F
THOMAS POINT MD  0500   44 43  180/  8/  9   N/A
GOOSES REEF MD   0500   43 42  150/  6/  8 1021.0    1/ 2
COVE POINT MD    0448   43     180/ 10/ 10 1020.7F
SOLOMONS ISLAND  0448   44 44   90/  2/  3   N/A
BISHOPS HEAD MD  0448   43 46  100/  4/  4 1020.6F
PINEY POINT MD   0448          170/  4/  5   N/A
POTOMAC MD       0500   44 43  180/  4/  6 1019.3    1
CAMBRIDGE MD     0448   43 41  110/  4/  5 1019.8F
LEWISETTA VA     0448   45 46  170/  5/  5 1020.0F
RAPPAHANNOCK LGT 0448          140/  8/  8 1020.7F
YORK RVR RNG VA  0448   47     150/  6/  7 1019.4F
YORKTOWN VA      0448   46 46  160/  2/  3 1019.7F
JAMESTOWN VA     0500   47 50  140/  6/  8   N/A
DOMINION TERM VA 0448   48     140/  4/  5 1020.1F
KIPTOPEKE VA     0448      47  130/  8/ 10   N/A
CHES BAY BRIDGE  0448   47 47  150/  3/  6 1020.0F
CAPE HENRY VA    0448   48     150/  7/  9   N/A
WILLOUBY STN VA  0448   48     130/  3/  4 1020.9F
S CRANEY ISL VA  0448   49     160/  8/ 10 1019.9F
CAPE HENRY BUOY  0442      47                N/A     3/ 6
OFFSHORE WE BUOY 0451      47                N/A     4/ 8
64NM E OF VA BCH 0450   54 53  100/  6/  8 1020.3F   4/ 8   3/ 8
DUCK PIER NC     0448   49 49  110/  5/  5 1019.9F
44100 DUCK FRF   0435      48                N/A     4/ 6
44056 DUCK FRF   0430      49                N/A     4/ 8
OREGON INLET NC  0436   49 51   30/  4/  5 1020.6F
HATTERAS NC      0448   61 58  140/  5/  6 1020.0F
DIAMOND SHLS NC  0450   63 74  120/  6/  8 1020.6F   4/10   3/10
CAPE LOOKOUT NC  0500   62     110/  7/  7 1019.2F
$$



USA.gov is the U.S. government's official web portal to all federal, state and local government web resources and services.